GEFSSGP_con_cape1000_000.txt.gz
Probability
97 74 100 100 65 0 0 0 0 26 0 0 0 0 0 0 0 0 61 3 0 65 100 100 100 100 100 100 100 100 100 100 100 100 100 100 100 100 87 87 35 81 100 100 100 100 100 100 100
81 100 100 100 0 0 0 0 0 0 0 0 0 0 0 0 0 39 77 13 13 81 100 100 100 100 100 100 100 100 100 100 100 100 100 100 100 100 100 100 94 100 100 100 100 100 100 100 100
100 100 100 16 0 0 0 0 0 0 0 0 0 0 0 3 6 45 87 23 52 97 100 100 100 100 100 100 100 100 100 100 100 100 100 100 100 100 100 100 100 100 100 100 100 100 100 100 100
100 100 16 0 0 0 0 0 0 0 0 0 0 0 0 3 42 84 90 19 48 90 100 100 100 100 100 100 100 100 100 100 100 100 100 100 100 100 100 100 100 100 100 100 100 100 100 100 100
100 48 0 0 0 0 3 0 0 32 0 0 0 0 13 6 32 94 94 23 29 87 100 100 100 100 100 100 100 100 100 100 100 100 100 100 100 100 100 100 100 100 100 100 100 100 100 100 97
100 6 0 0 0 0 0 0 0 0 0 0 0 0 3 48 68 94 94 32 19 84 100 100 100 100 100 100 100 100 100 100 100 100 100 100 100 100 100 100 100 100 100 100 100 100 100 100 77
68 32 3 0 0 0 0 0 0 0 0 0 0 0 13 35 55 68 58 32 35 55 71 84 100 100 100 100 100 100 100 100 100 100 100 100 100 100 100 100 100 100 100 100 100 100 100 100 16
13 19 0 10 0 0 0 0 0 0 0 0 0 0 3 16 81 87 58 32 10 16 13 42 94 97 94 100 100 100 100 100 100 100 100 100 100 100 100 100 100 100 100 100 100 100 100 100 6
3 0 0 0 0 0 0 0 0 0 0 0 0 0 0 48 87 90 77 19 0 35 29 19 16 35 94 100 100 100 100 100 100 100 100 100 100 90 97 100 100 100 100 100 100 100 100 94 0
35 0 0 0 0 0 0 0 0 0 0 0 0 0 3 81 94 94 23 6 0 10 52 48 45 0 87 100 100 100 100 100 87 68 87 94 97 100 87 100 100 100 100 100 100 100 100 48 0
0 0 0 0 0 0 0 0 0 0 0 0 0 0 10 90 97 87 10 3 0 0 29 6 32 0 48 94 90 90 97 90 87 58 26 10 23 71 45 13 61 81 97 94 100 97 52 0 0
0 0 0 0 0 0 0 0 0 0 0 0 0 0 26 84 100 97 32 16 23 6 32 0 0 6 16 55 94 81 3 13 81 3 0 3 3 0 6 6 23 71 65 32 32 61 19 0 0
0 0 0 0 0 0 0 0 0 0 0 0 0 0 16 68 94 97 65 35 23 16 16 32 0 3 0 6 77 35 29 13 10 3 3 3 0 3 23 77 87 77 10 0 0 65 48 6 0
0 0 0 0 0 0 0 0 0 0 0 0 0 0 3 68 94 90 77 42 13 10 6 77 16 10 0 0 16 35 3 0 0 0 0 0 0 13 65 71 55 3 0 3 32 81 58 6 0
0 0 0 0 0 0 0 0 0 0 0 0 0 0 3 71 81 68 39 29 10 16 39 68 77 23 0 0 3 6 6 0 0 0 0 0 6 42 87 65 3 0 0 0 23 29 74 16 0
0 0 0 0 0 0 0 0 0 0 0 0 0 0 0 39 65 81 32 19 16 39 74 71 74 35 10 0 0 0 0 0 0 3 6 6 3 23 84 29 0 0 0 0 29 19 74 19 0
0 0 0 0 0 0 0 0 0 0 0 0 0 0 0 3 6 52 61 48 61 77 68 97 74 45 6 0 3 0 0 0 0 3 0 0 0 29 65 16 3 0 0 0 10 13 55 48 0
0 0 0 0 0 0 0 0 0 0 0 0 0 0 0 0 0 3 23 45 23 29 26 35 48 48 42 65 16 19 0 0 0 0 0 0 3 23 16 29 3 3 3 0 0 10 77 81 3
0 0 0 0 0 0 0 0 0 0 0 0 0 0 0 0 0 0 3 0 0 0 3 0 0 3 19 0 0 6 0 0 3 6 3 3 10 16 0 0 0 6 3 13 26 48 65 48 3
0 0 0 0 0 0 0 0 0 0 0 0 0 0 0 0 0 0 0 0 0 0 0 0 0 0 0 0 0 10 0 0 0 3 0 0 0 0 19 13 0 6 23 55 39 32 6 0 0
0 0 0 0 0 0 0 0 0 0 0 0 0 0 0 0 0 3 0 0 0 0 0 0 0 0 0 0 0 0 0 0 0 3 6 3 19 26 58 3 13 16 6 26 45 19 0 0 0
0 0 0 0 0 0 0 0 0 0 0 0 0 0 0 0 0 0 0 0 0 0 0 0 0 0 0 0 0 0 0 0 0 6 26 42 84 94 81 35 32 71 77 52 6 0 0 0 3
0 0 0 0 0 0 0 0 0 0 0 0 0 0 0 0 0 0 0 0 0 0 0 0 0 0 0 0 0 0 0 0 3 6 32 84 81 42 29 35 61 32 0 0 0 0 0 0 0
0 0 0 0 0 0 0 0 0 0 0 0 0 0 0 0 0 0 0 0 0 0 0 0 0 0 0 0 0 0 0 0 16 55 55 77 77 16 3 0 6 10 0 0 0 0 0 0 0
0 0 0 0 0 0 0 0 0 0 0 0 0 0 0 0 0 0 0 0 3 0 0 0 0 0 0 0 0 0 0 0 0 23 32 81 90 94 29 0 0 0 0 0 0 0 0 0 0
0 0 0 0 0 0 0 0 0 0 0 0 0 0 6 10 3 0 6 23 13 0 0 0 0 10 6 6 6 0 0 0 0 3 3 84 84 81 32 3 0 0 0 0 0 0 0 0 0
0 0 0 0 0 0 0 0 0 0 0 0 0 0 3 10 32 32 45 29 3 0 0 0 0 0 16 23 19 10 3 3 10 23 42 74 58 10 0 0 0 0 0 0 0 0 0 0 0
0 0 0 0 0 0 0 0 0 0 0 0 0 0 0 23 71 74 65 29 13 0 0 0 0 13 19 39 58 74 71 55 26 0 0 0 0 0 0 0 0 0 0 0 0 0 0 0 0
0 0 0 0 0 0 0 0 0 0 0 0 0 0 0 6 77 94 74 39 10 0 0 0 0 0 3 13 45 68 68 42 23 3 0 0 0 0 0 0 0 0 0 0 0 0 0 0 0
0 0 0 0 0 0 0 0 0 0 0 0 0 0 0 3 94 97 68 32 13 10 0 0 0 0 0 3 16 26 35 26 19 0 0 0 0 0 0 0 0 0 0 0 0 0 0 0 0

GEFSSGP_con_cape1000_006.txt.gz
Probability
100 100 100 100 100 100 0 0 0 0 0 0 0 0 0 0 0 68 94 52 65 100 100 100 100 100 100 100 100 100 100 100 100 100 100 100 100 100 100 94 100 100 100 100 100 100 100 100 100
97 100 100 100 100 0 0 0 0 0 0 0 0 0 0 0 10 19 58 87 77 100 100 100 100 100 100 100 100 100 100 100 100 100 100 100 100 100 100 100 100 100 100 100 100 100 100 100 100
100 100 100 100 35 0 0 0 0 0 0 0 0 0 0 0 16 71 42 35 61 100 100 100 100 100 100 100 100 100 100 100 100 100 100 100 100 100 100 100 100 100 100 100 100 100 100 100 97
100 100 100 87 0 0 0 0 0 0 0 0 0 0 0 0 19 58 16 6 68 100 94 94 100 100 100 100 100 100 100 100 100 100 100 100 100 100 100 100 100 100 100 100 100 100 100 87 29
100 100 100 0 0 0 0 0 0 0 0 0 0 0 0 0 35 19 26 29 45 84 84 23 100 100 100 100 100 100 100 100 100 100 100 100 100 100 100 100 100 100 100 100 100 100 90 42 0
100 100 3 0 0 0 0 0 0 0 0 0 0 0 10 0 19 6 0 3 39 42 55 10 100 100 100 100 100 100 100 100 100 100 100 100 100 100 100 100 100 100 100 97 100 90 29 6 0
100 100 6 0 0 0 0 0 0 0 0 0 0 0 10 0 26 6 0 3 0 6 29 0 19 84 100 100 100 100 100 100 100 97 97 97 100 100 100 97 100 100 100 100 100 74 3 10 0
100 100 0 0 0 0 0 0 0 0 0 0 0 0 13 6 13 3 0 0 0 0 13 6 0 0 39 97 100 100 100 100 97 100 100 100 100 100 100 100 100 100 100 100 100 65 3 3 0
94 100 0 0 0 0 0 0 0 0 0 0 0 0 6 3 3 6 0 0 0 0 0 0 0 0 13 16 29 81 100 94 94 100 100 100 61 39 100 100 100 100 100 100 100 71 0 3 0
94 81 0 0 0 0 0 0 0 0 0 0 0 0 0 0 0 3 0 0 0 0 0 0 0 0 0 0 3 39 3 3 0 6 61 23 0 0 6 100 100 100 100 100 100 84 26 3 0
10 0 0 0 0 0 0 0 0 0 0 0 0 0 0 0 3 6 0 0 0 0 0 0 0 0 3 0 0 3 16 19 10 0 0 0 0 0 0 0 90 97 100 71 100 100 52 0 0
0 0 0 0 0 0 0 0 0 0 0 0 0 0 0 0 3 26 3 0 0 0 0 0 0 0 0 0 0 10 19 19 6 0 0 0 0 0 0 0 10 42 42 52 19 77 10 0 0
0 0 0 0 0 0 0 0 0 0 0 0 0 0 0 0 10 23 13 0 0 0 0 0 0 0 0 3 3 6 29 19 0 19 0 0 0 0 0 0 10 0 10 90 42 10 0 0 0
0 0 0 0 0 0 0 0 0 0 0 0 0 0 0 0 3 16 10 0 0 0 0 0 0 0 0 0 0 0 0 71 0 3 0 0 0 0 0 0 16 0 0 0 0 0 0 0 0
0 0 0 0 0 0 0 0 0 0 0 0 0 0 0 0 0 3 10 0 0 0 0 0 0 0 0 0 0 0 0 0 0 0 0 0 0 0 3 0 0 0 0 0 0 0 0 0 0
0 0 0 0 0 0 0 0 0 0 0 0 0 0 0 0 0 0 3 3 0 3 0 0 0 0 0 0 0 0 0 0 0 0 0 0 0 0 0 0 0 0 0 0 0 0 3 0 0
0 0 0 0 0 0 0 0 0 0 0 0 0 0 0 0 0 0 0 3 6 0 0 0 0 0 0 0 0 0 0 0 0 0 0 0 0 0 0 6 0 0 0 0 0 6 0 0 0
0 0 0 0 0 0 0 0 0 0 0 0 0 0 0 0 0 0 0 10 13 3 0 3 3 0 0 0 0 0 0 0 0 0 0 0 0 0 0 16 0 0 0 0 3 0 0 3 0
0 0 0 0 0 0 0 0 0 0 0 0 0 0 0 0 0 0 0 3 45 23 6 3 0 0 3 13 6 10 0 0 0 3 0 0 0 0 0 0 0 0 0 3 0 0 0 0 0
0 0 0 0 0 0 0 0 0 0 0 0 0 0 0 0 0 3 6 13 32 16 26 10 6 3 13 13 6 3 0 0 0 0 0 0 0 0 0 0 0 6 3 3 0 3 3 0 0
0 0 0 0 0 0 0 0 0 0 0 0 0 0 0 0 0 0 0 10 13 6 6 6 6 3 6 6 0 0 0 0 6 3 0 0 0 0 0 0 0 0 0 3 19 19 6 0 0
0 0 0 0 0 0 0 0 0 0 0 0 0 0 0 0 0 0 0 0 0 6 0 0 0 0 0 0 3 0 0 0 0 0 3 0 0 0 0 0 0 0 0 13 23 13 29 10 0
0 0 0 0 0 0 0 0 0 0 0 0 0 0 0 0 0 0 0 3 0 10 3 0 0 0 0 0 0 0 0 0 0 0 3 0 0 0 0 0 0 0 6 0 0 0 0 3 0
0 0 0 0 0 0 0 0 0 0 0 0 0 0 0 0 0 0 0 6 13 10 10 0 0 0 0 0 0 0 0 0 0 0 0 13 45 13 0 0 0 0 0 0 0 0 0 0 0
0 0 0 0 0 0 0 0 0 0 0 0 0 0 0 0 0 0 0 0 13 16 16 3 0 0 0 0 0 0 0 0 0 0 0 10 35 26 0 0 0 0 0 0 0 0 0 0 0
0 0 0 0 0 0 0 0 0 0 0 0 0 0 0 0 0 0 3 29 55 58 45 16 6 6 0 0 0 0 0 0 0 0 0 0 10 16 13 3 0 0 0 0 0 0 0 0 0
0 0 0 0 0 0 0 0 0 0 0 0 0 0 0 0 0 0 10 71 84 84 68 42 32 26 3 0 0 0 0 0 0 0 0 0 3 10 13 10 0 3 0 0 0 3 0 0 0
0 0 0 0 0 0 0 0 0 0 0 0 0 0 0 0 0 6 29 87 90 81 55 35 45 55 26 3 6 0 6 3 3 10 10 13 3 10 16 16 0 0 0 0 0 3 0 0 0
0 0 0 0 0 0 0 0 0 0 0 0 0 0 0 0 0 19 74 87 74 61 48 26 19 32 32 13 6 10 13 10 10 6 6 0 0 3 3 3 3 0 0 0 0 0 0 0 0
0 0 0 0 0 0 0 0 0 0 0 0 0 0 0 0 3 23 68 81 61 55 35 6 16 16 13 13 10 13 13 10 10 6 0 0 0 0 0 0 0 0 0 0 0 0 0 0 0

GEFSSGP_con_cape1000_012.txt.gz
Probability
100 90 94 94 3 0 0 0 0 0 0 0 0 0 0 0 0 0 0 0 6 19 97 100 100 100 100 100 100 100 100 100 100 100 97 97 97 100 100 100 100 100 100 100 100 100 87 71 90
97 100 97 77 0 0 0 0 0 0 0 0 0 0 0 0 0 0 0 39 29 32 100 100 100 100 100 100 100 100 100 100 100 100 97 97 100 100 100 100 100 100 100 100 100 87 32 45 81
100 100 97 0 0 0 0 0 0 0 0 0 0 0 0 0 0 0 6 45 23 26 90 100 100 100 100 100 100 100 100 100 100 100 100 100 100 100 100 100 100 100 100 100 97 45 13 16 68
100 55 0 0 0 0 0 0 0 0 0 0 0 0 0 0 0 0 6 26 23 29 71 100 100 100 100 100 100 100 100 100 100 100 100 100 100 100 100 100 100 100 100 94 71 13 0 0 16
74 3 0 0 0 0 0 0 0 0 0 0 0 0 3 3 0 0 13 26 0 6 35 100 100 100 100 100 100 100 100 100 100 100 100 100 100 100 100 100 100 100 81 39 16 3 0 0 16
26 0 0 0 0 0 0 0 0 0 0 0 0 0 0 0 0 0 13 0 0 0 10 100 100 100 100 100 100 100 100 100 100 100 100 100 100 100 100 100 100 97 29 6 0 0 0 6 55
16 0 0 0 0 0 0 0 0 0 0 0 0 0 0 0 0 0 0 0 0 0 0 23 100 100 100 100 100 100 100 100 100 100 100 100 100 100 100 100 97 74 10 0 0 3 6 13 45
6 0 0 0 0 0 0 0 0 0 0 0 0 0 0 0 0 0 0 0 0 0 0 0 16 77 94 100 100 100 100 100 100 100 97 100 100 100 100 100 97 42 0 0 0 3 13 23 74
0 0 0 0 0 0 0 0 0 0 0 0 0 0 0 0 0 0 0 0 0 0 0 0 0 6 13 39 100 100 100 100 100 100 100 100 55 74 100 97 100 68 0 0 0 3 16 26 39
0 0 0 0 0 0 0 0 0 0 0 0 0 0 0 0 0 0 0 0 0 0 0 0 0 0 0 0 16 3 39 48 35 35 90 10 0 0 58 100 100 84 35 23 23 10 16 0 0
0 0 0 0 0 0 0 0 0 0 0 0 0 0 0 0 0 0 0 0 0 0 0 0 0 0 0 0 0 0 0 0 0 0 0 0 0 0 0 45 97 58 58 32 39 32 0 0 0
0 0 0 0 0 0 0 0 0 0 0 0 0 0 0 0 0 0 0 0 0 0 0 0 0 0 0 0 0 0 0 0 0 0 0 0 0 0 0 0 3 0 0 0 0 3 0 0 0
0 0 0 0 0 0 0 0 0 0 0 0 0 0 0 0 0 0 0 0 0 0 0 0 0 0 0 0 0 0 0 0 0 0 0 0 0 0 0 0 0 0 0 0 0 0 0 0 0
0 0 0 0 0 0 0 0 0 0 0 0 0 0 0 0 0 0 0 0 0 0 0 0 0 0 0 0 0 0 0 0 0 0 0 0 0 0 0 0 0 0 0 0 0 0 0 0 0
0 0 0 0 0 0 0 0 0 0 0 0 0 0 0 0 0 0 0 0 0 0 0 0 0 0 0 0 0 0 0 0 0 0 0 0 0 0 0 0 0 0 0 0 0 0 0 0 0
0 0 0 0 0 0 0 0 0 0 0 0 0 0 0 0 0 0 0 0 0 0 0 0 0 0 0 0 0 0 0 0 0 0 0 0 0 0 0 0 0 0 0 0 0 0 0 0 0
0 0 0 0 0 0 0 0 0 0 0 0 0 0 0 0 0 0 0 0 0 0 0 0 0 0 0 0 0 0 0 0 0 0 0 0 0 0 0 0 0 0 0 0 0 0 0 0 0
0 0 0 0 0 0 0 0 0 0 0 0 0 0 0 0 0 0 0 0 0 0 0 0 0 0 0 0 0 0 0 0 0 0 0 0 0 0 0 0 0 0 0 0 0 0 0 0 0
0 0 0 0 0 0 0 0 0 0 0 0 0 0 0 0 0 0 0 0 0 0 0 0 0 0 0 0 0 0 0 0 0 0 0 0 0 0 0 0 0 0 0 0 0 0 0 0 0
0 0 0 0 0 0 0 0 0 0 0 0 0 0 0 0 0 0 0 0 0 0 0 0 0 0 0 0 0 0 0 0 0 0 0 0 0 0 0 0 0 0 0 0 0 0 0 0 0
0 0 0 0 0 0 0 0 0 0 0 0 0 0 0 0 0 0 0 0 0 0 0 0 0 0 0 0 0 0 0 0 0 0 0 0 0 0 0 0 0 0 0 0 0 0 0 0 0
0 0 0 0 0 0 0 0 0 0 0 0 0 0 0 0 0 0 0 0 0 0 0 0 0 0 0 0 0 0 0 0 0 0 0 0 0 0 0 0 0 0 0 0 0 0 0 0 0
0 0 0 0 0 0 0 0 0 0 0 0 0 0 0 0 0 0 0 0 0 0 0 0 0 0 0 0 0 0 0 0 0 0 0 0 0 0 0 0 0 0 0 0 0 0 0 0 0
0 0 0 0 0 0 0 0 0 0 0 0 0 0 0 0 0 0 0 0 0 0 0 0 0 0 0 0 0 0 0 0 0 0 0 0 0 0 0 0 0 0 0 0 0 0 0 0 0
0 0 0 0 0 0 0 0 0 0 0 0 0 0 0 0 0 0 0 0 0 0 0 0 0 0 0 0 0 0 0 0 0 0 0 0 0 0 0 0 0 0 0 0 0 0 0 0 0
0 0 0 0 0 0 0 0 0 0 0 0 0 0 0 0 0 0 0 0 0 0 0 0 0 0 0 0 0 0 0 0 0 0 0 0 0 0 0 0 0 0 0 0 0 0 0 0 0
0 0 0 0 0 0 0 0 0 0 0 0 0 0 0 0 0 0 0 0 0 0 0 0 0 0 0 0 0 0 0 0 0 0 0 0 0 0 0 0 0 0 0 0 0 0 0 0 0
0 0 0 0 0 0 0 0 0 0 0 0 0 0 0 0 0 0 0 0 0 0 0 0 0 0 0 0 0 0 0 0 0 0 0 0 0 0 0 0 0 0 0 0 0 0 0 0 0
0 0 0 0 0 0 0 0 0 0 0 0 0 0 0 0 0 0 0 0 0 0 0 0 0 0 0 0 0 0 0 0 0 0 0 0 0 0 0 0 0 0 0 0 0 0 0 0 0
0 0 0 0 0 0 0 0 0 0 0 0 0 0 0 0 0 3 3 3 0 0 0 0 0 0 0 0 0 0 0 0 0 0 0 0 0 0 0 0 0 0 0 0 0 0 0 0 0

GEFSSGP_con_cape1000_018.txt.gz
Probability
97 87 58 0 0 0 0 0 0 0 0 0 0 0 0 0 0 0 0 0 0 0 35 100 100 100 94 97 100 100 100 100 100 97 97 94 100 100 100 100 100 100 100 100 97 94 94 100 100
90 90 35 0 0 0 0 0 0 0 0 0 0 0 0 0 0 0 0 0 0 0 90 100 100 100 97 100 100 100 100 100 100 100 100 97 100 100 100 100 100 100 100 94 84 90 94 97 100
97 61 3 0 0 0 0 0 0 0 0 0 0 0 0 0 0 0 0 0 0 10 90 100 100 100 100 100 100 100 100 100 100 100 100 100 100 100 100 100 100 100 94 68 71 84 90 94 97
16 0 0 0 0 0 0 0 0 0 0 0 0 0 0 0 0 0 0 0 0 23 81 100 100 100 100 100 100 100 100 100 100 100 100 100 100 100 100 100 100 94 84 32 42 71 84 90 97
0 0 0 0 0 0 0 0 0 0 0 0 0 0 0 0 0 0 0 0 0 10 71 100 100 100 100 100 100 100 100 100 100 100 100 100 100 100 100 100 97 84 45 10 16 48 74 84 97
0 0 0 0 0 0 0 0 0 0 0 0 0 0 0 0 0 0 0 0 0 3 61 97 100 100 100 100 100 100 100 100 100 100 100 100 100 100 100 97 84 42 13 3 16 74 77 90 100
0 0 0 0 0 0 0 0 0 0 0 0 0 0 0 0 0 0 0 0 0 0 6 65 100 100 100 100 100 100 100 100 100 100 100 100 100 100 100 90 39 6 0 6 48 84 100 100 100
0 0 0 0 0 0 0 0 0 0 0 0 0 0 0 0 0 0 0 0 0 0 0 3 52 71 97 100 100 100 100 100 100 100 100 100 100 100 97 71 13 0 3 32 65 97 97 97 100
0 0 0 0 0 0 0 0 0 0 0 0 0 0 0 0 0 0 0 0 0 0 0 0 0 0 10 58 100 100 100 100 100 100 100 100 55 55 81 55 10 3 13 42 90 94 90 94 87
0 0 0 0 0 0 0 0 0 0 0 0 0 0 0 0 0 0 0 0 0 0 0 0 0 0 0 32 71 35 84 84 42 19 23 0 0 0 39 58 6 3 19 65 81 48 32 3 0
0 0 0 0 0 0 0 0 0 0 0 0 0 0 0 0 0 0 0 0 0 0 0 0 0 0 0 0 0 0 0 0 0 0 0 0 0 0 0 0 0 0 0 0 0 0 0 0 0
0 0 0 0 0 0 0 0 0 0 0 0 0 0 0 0 0 0 0 0 0 0 0 0 0 0 0 0 0 0 0 0 0 0 0 0 0 0 0 0 0 0 0 0 0 0 0 0 0
0 0 0 0 0 0 0 0 0 0 0 0 0 0 0 0 0 0 0 0 0 0 0 0 0 0 0 0 0 0 0 0 0 0 0 0 0 0 0 0 0 0 0 0 0 0 0 0 0
0 0 0 0 0 0 0 0 0 0 0 0 0 0 0 0 0 0 0 0 0 0 0 0 0 0 0 0 0 0 0 0 0 0 0 0 0 0 0 0 0 0 0 0 0 0 0 0 0
0 0 0 0 0 0 0 0 0 0 0 0 0 0 0 0 0 0 0 0 0 0 0 0 0 0 0 0 0 0 0 0 0 0 0 0 0 0 0 0 0 0 0 0 0 0 0 0 0
0 0 0 0 0 0 0 0 0 0 0 0 0 0 0 0 0 0 0 0 0 0 0 0 0 0 0 0 0 0 0 0 0 0 0 0 0 0 0 0 0 0 0 0 0 0 0 0 0
0 0 0 0 0 0 0 0 0 0 0 0 0 0 0 0 0 0 0 0 0 0 0 0 0 0 0 0 0 0 0 0 0 0 0 0 0 0 0 0 0 0 0 0 0 0 0 0 0
0 0 0 0 0 0 0 0 0 0 0 0 0 0 0 0 0 0 0 0 0 0 0 0 0 0 0 0 0 0 0 0 0 0 0 0 0 0 0 0 0 0 0 0 0 0 0 0 0
0 0 0 0 0 0 0 0 0 0 0 0 0 0 0 0 0 0 0 0 0 0 0 0 0 0 0 0 0 0 0 0 0 0 0 0 0 0 0 0 0 0 0 0 0 0 0 0 0
0 0 0 0 0 0 0 0 0 0 0 0 0 0 0 0 0 0 0 0 0 0 0 0 0 0 0 0 0 0 0 0 0 0 0 0 0 0 0 0 0 0 0 0 0 0 0 0 0
0 0 0 0 0 0 0 0 0 0 0 0 0 0 0 0 0 0 0 0 0 0 0 0 0 0 0 0 0 0 0 0 0 0 0 0 0 0 0 0 0 0 0 0 0 0 0 0 0
0 0 0 0 0 0 0 0 0 0 0 0 0 0 0 0 0 0 0 0 0 0 0 0 0 0 0 0 0 0 0 0 0 0 0 0 0 0 0 0 0 0 0 0 0 0 0 0 0
0 0 0 0 0 0 0 0 0 0 0 0 0 0 0 0 0 0 0 0 0 0 0 0 0 0 0 0 0 0 0 0 0 0 0 0 0 0 0 0 0 0 0 0 0 0 0 0 0
0 0 0 0 0 0 0 0 0 0 0 0 0 0 0 0 0 0 0 0 0 0 0 0 0 0 0 0 0 0 0 0 0 0 0 0 0 0 0 0 0 0 0 0 0 0 0 0 0
0 0 0 0 0 0 0 0 0 0 0 0 0 0 0 0 0 0 0 0 0 0 0 0 0 0 0 0 0 0 0 0 0 0 0 0 0 0 0 0 0 0 0 0 0 0 0 0 0
0 0 0 0 0 0 0 0 0 0 0 0 0 0 0 0 0 0 0 0 0 0 0 0 0 0 0 0 0 0 0 0 0 0 0 0 0 0 0 0 0 0 0 0 0 0 0 0 0
0 0 0 0 0 0 0 0 0 0 0 0 0 0 0 0 0 0 0 0 0 0 0 0 0 0 0 0 0 0 0 0 0 0 0 0 0 0 0 0 0 0 0 0 0 0 0 0 0
0 0 0 0 0 0 0 0 0 0 0 0 0 0 0 0 0 0 0 0 0 0 0 0 0 0 0 0 0 0 0 0 0 0 0 0 0 0 0 0 0 0 0 0 0 0 0 0 0
0 0 0 0 0 0 0 0 0 0 0 0 0 0 0 0 0 0 0 0 0 0 0 0 0 0 0 0 0 0 0 0 0 0 0 0 0 0 0 0 0 0 0 0 0 0 0 0 0
0 0 0 0 0 0 0 0 0 0 0 0 0 0 0 0 0 0 0 0 0 0 0 0 0 0 0 0 0 0 0 0 0 0 0 0 0 0 0 0 0 0 0 0 0 0 0 0 0

GEFSSGP_con_cape1000_024.txt.gz
Probability
97 97 97 97 0 0 0 0 0 0 0 0 0 0 0 0 0 0 3 0 0 0 26 100 100 100 100 100 100 100 100 100 100 94 94 97 94 97 90 84 65 45 48 52 74 84 87 97 100
97 97 94 13 0 0 0 0 0 0 0 0 0 0 0 0 0 0 0 0 0 0 32 87 100 100 100 100 100 100 100 97 100 97 97 94 97 94 97 97 77 68 55 65 74 84 90 97 100
97 90 52 0 0 0 0 0 0 0 0 0 0 0 0 0 0 0 0 0 0 3 23 94 100 100 100 100 100 100 100 100 100 100 97 97 97 94 97 100 90 74 61 65 87 87 94 94 97
90 81 3 0 0 0 0 0 0 0 0 0 0 0 0 0 0 0 0 0 0 3 29 97 100 100 100 100 97 100 100 100 100 100 94 97 94 97 94 90 87 71 45 71 81 90 87 94 87
61 10 0 0 0 0 0 0 0 0 0 0 0 0 0 0 0 0 3 0 0 3 19 87 100 100 100 100 100 100 100 100 100 100 100 100 97 97 90 94 74 35 13 48 71 87 84 90 90
48 0 0 0 0 0 0 0 0 0 0 0 0 0 0 0 0 0 0 0 0 0 13 81 100 100 100 100 100 100 100 100 100 100 100 100 97 97 97 74 39 10 6 19 68 68 84 90 94
42 0 0 0 0 0 0 0 0 0 0 0 0 0 0 0 3 0 0 0 0 0 3 74 94 100 100 100 100 100 100 100 100 100 100 97 97 97 87 42 16 0 6 39 52 74 94 87 84
45 0 0 0 0 0 0 0 0 0 0 0 0 0 0 0 3 0 0 0 0 0 3 32 61 77 90 97 100 100 100 100 100 100 97 97 97 84 58 16 3 6 19 61 84 100 97 90 68
23 0 0 0 0 0 0 0 0 0 0 0 0 0 0 0 0 0 0 0 6 3 3 10 29 52 77 94 100 100 100 100 100 100 94 84 42 10 10 0 16 32 45 74 90 84 77 48 39
74 0 0 0 0 0 0 0 0 0 0 0 0 0 0 3 0 0 3 0 6 6 6 6 6 16 48 61 100 100 100 100 84 65 23 3 3 0 0 3 39 48 58 71 77 52 10 0 0
42 0 0 0 0 0 0 0 0 0 0 0 0 0 0 0 0 3 0 0 0 3 6 3 3 10 26 77 90 94 100 100 29 6 6 0 0 0 0 6 19 35 16 0 6 10 0 0 0
23 0 0 0 0 0 0 0 0 0 0 0 0 0 0 3 3 16 6 0 0 0 0 0 0 0 3 26 45 42 52 61 35 3 0 0 0 0 0 3 0 3 0 0 0 0 0 0 0
3 0 0 0 0 0 0 0 0 0 0 0 0 0 0 0 0 0 0 0 0 0 3 0 0 0 0 6 23 26 26 23 10 16 0 0 0 0 0 0 3 0 0 0 0 0 0 0 0
0 0 0 0 0 0 0 0 0 0 0 0 0 0 0 0 0 0 0 0 0 0 13 23 6 3 0 3 19 10 6 23 3 16 0 0 0 0 0 0 3 0 0 0 0 0 0 0 0
0 0 0 0 0 0 0 0 0 0 0 0 0 0 0 0 0 0 0 0 0 3 13 35 39 16 13 6 10 10 10 6 10 19 0 0 0 0 0 0 0 0 0 0 0 0 0 0 0
0 0 0 0 0 0 0 0 0 0 0 0 0 0 0 0 0 0 0 0 0 35 42 58 77 65 65 32 42 26 10 3 10 13 3 0 0 0 0 0 0 0 0 0 3 6 0 0 0
0 0 0 0 0 0 0 0 0 0 0 0 0 0 0 0 0 0 0 0 16 68 84 90 97 97 87 74 87 48 13 26 16 10 6 0 0 0 0 0 0 0 3 3 0 10 3 3 0
0 0 0 0 0 0 0 0 0 0 0 0 0 0 0 0 0 0 3 16 35 55 90 97 97 100 97 97 81 84 52 45 32 16 10 0 0 0 0 3 0 0 6 23 3 3 3 6 6
0 0 0 0 0 0 0 0 0 0 0 0 0 0 0 0 0 0 6 16 23 48 65 77 94 100 100 97 90 84 84 84 68 55 13 6 0 3 6 0 0 16 35 32 6 16 6 6 0
0 0 0 0 0 0 0 0 0 0 0 0 0 0 0 0 0 0 6 10 16 48 61 68 90 90 100 100 97 81 90 81 81 77 45 19 23 13 3 19 26 61 77 71 39 29 29 3 0
0 0 0 0 0 0 0 0 0 0 0 0 0 0 0 0 0 0 3 10 19 42 55 52 90 97 100 100 97 84 84 90 87 81 74 55 48 35 52 23 26 52 55 77 74 65 39 13 3
0 0 0 0 0 0 0 0 0 0 0 0 0 0 0 0 0 0 0 3 13 35 52 71 87 94 100 100 97 97 94 94 97 87 74 58 61 61 45 35 35 42 39 52 65 48 48 48 32
0 0 0 0 0 0 0 0 0 0 0 0 0 0 0 0 0 0 0 0 13 35 52 71 71 77 87 87 97 97 97 97 94 77 68 58 61 68 77 61 42 19 23 23 39 42 23 35 39
0 0 0 0 0 0 0 0 0 0 0 0 0 0 0 0 0 0 0 0 13 35 61 68 77 74 68 81 87 90 90 94 97 90 81 81 81 74 48 55 45 19 23 16 16 16 19 26 26
0 0 0 0 0 0 0 0 0 0 0 0 0 0 0 0 0 0 0 0 23 48 77 77 81 81 68 71 68 74 84 81 81 87 94 87 84 71 68 55 55 29 13 0 6 6 13 10 6
0 0 0 0 0 0 0 0 0 0 0 0 0 0 0 3 0 0 0 0 23 61 87 94 94 87 74 68 58 52 58 87 81 81 87 87 84 77 74 58 45 32 13 0 0 3 6 0 0
0 0 0 0 0 0 0 0 0 0 0 0 0 0 0 0 3 0 0 3 42 74 87 94 94 94 84 77 68 55 45 68 81 71 71 71 65 55 58 58 58 39 23 6 0 6 3 0 0
0 0 0 0 0 0 0 0 0 0 0 0 0 0 0 0 3 3 6 10 39 77 94 97 97 97 90 81 81 71 81 81 77 65 71 61 55 48 58 58 48 29 32 26 10 0 0 3 3
0 0 0 0 0 0 0 0 0 0 0 0 0 0 0 0 0 3 3 10 32 58 90 100 100 97 94 84 81 81 77 77 77 77 71 65 65 68 55 45 29 23 23 6 6 3 6 0 0
0 0 0 0 0 0 0 0 0 0 0 0 0 0 0 0 0 0 3 6 19 48 84 97 100 100 100 97 90 87 81 87 81 61 61 58 61 58 42 29 19 26 23 13 6 6 3 3 0

GEFSSGP_con_cape1000_030.txt.gz
Probability
100 100 100 100 100 84 0 0 0 0 0 0 0 0 0 0 0 26 42 6 19 90 94 100 100 100 100 94 94 90 84 90 90 90 97 97 97 84 58 42 32 29 35 39 65 74 87 90 94
100 100 100 100 100 0 0 0 0 0 0 0 0 0 0 0 0 0 3 13 26 81 81 94 100 100 100 94 94 94 87 87 87 87 90 87 90 81 68 39 42 29 26 48 52 68 77 90 94
97 97 100 100 35 0 0 0 0 0 0 0 0 0 0 0 0 0 0 0 3 71 87 100 100 100 100 100 94 94 90 81 87 87 94 87 90 87 65 48 26 26 39 52 58 65 68 84 87
100 100 100 45 0 0 0 0 0 0 0 0 0 0 0 0 0 0 0 0 3 71 94 100 100 100 100 100 100 97 100 81 87 97 90 94 94 84 65 55 29 26 42 48 52 61 55 74 71
100 100 100 10 0 0 0 0 0 0 0 0 0 0 0 0 0 0 0 0 3 55 100 100 100 100 100 100 97 97 100 90 94 97 94 97 94 84 74 48 19 23 29 42 39 48 42 48 45
100 100 23 0 0 0 0 0 0 0 0 0 0 0 0 0 0 0 0 0 0 55 90 94 100 100 100 97 97 100 100 94 97 100 97 94 90 87 68 35 6 3 13 19 35 45 39 35 19
100 100 19 0 0 0 0 0 0 0 0 0 0 0 0 0 0 0 0 0 0 42 84 61 97 97 100 97 100 100 100 97 100 100 100 100 97 81 55 32 6 6 13 16 32 55 42 10 3
100 100 19 0 0 0 0 0 0 0 0 0 0 0 0 0 0 0 0 0 0 13 61 48 39 71 74 97 100 100 100 100 100 100 100 100 97 65 42 16 10 13 16 32 45 58 29 6 0
100 100 23 0 0 0 0 0 0 0 0 0 0 0 0 0 0 0 0 0 0 0 26 68 55 61 65 74 100 100 97 97 97 94 97 94 29 0 16 0 13 19 19 35 58 65 35 6 3
97 100 35 0 0 0 0 0 0 0 0 0 0 0 0 0 0 0 0 0 0 0 19 45 58 68 68 68 94 100 97 94 55 16 29 10 0 0 0 13 26 26 32 42 55 58 48 19 0
52 39 39 0 0 0 0 0 0 0 0 0 0 0 0 0 0 0 0 0 0 0 0 19 35 58 55 61 68 65 81 77 52 3 0 3 0 0 0 0 6 10 6 0 19 16 3 0 0
35 16 0 0 0 0 0 0 0 0 0 0 0 0 0 0 0 0 0 0 0 0 3 6 13 35 32 26 29 29 23 19 6 16 0 0 0 0 0 0 0 0 0 0 0 0 0 0 0
13 3 0 0 0 0 0 0 0 0 0 0 0 0 0 0 0 0 0 0 0 0 0 3 6 13 6 19 26 16 26 3 6 23 0 0 0 0 0 0 0 0 0 0 3 0 0 0 0
3 0 0 0 0 0 0 0 0 0 0 0 0 0 0 0 0 0 0 0 0 0 0 0 0 0 3 19 10 0 6 39 3 6 0 0 0 0 0 0 0 3 0 0 0 0 0 0 0
0 0 0 0 0 0 0 0 0 0 0 0 0 0 0 0 0 0 0 0 0 0 0 0 0 0 0 6 10 3 3 0 0 13 0 0 0 0 0 0 0 3 0 0 0 0 0 0 0
0 0 0 0 0 0 0 0 0 0 0 0 0 0 0 0 0 0 0 0 0 0 0 0 0 0 0 3 26 6 3 0 0 6 0 0 0 0 0 0 3 0 0 0 3 3 0 0 0
0 0 0 0 0 0 0 0 0 0 0 0 0 0 0 0 0 0 0 0 0 0 0 10 19 16 13 26 45 32 10 10 3 3 0 0 0 0 0 0 0 0 3 3 3 3 3 0 0
0 0 0 0 0 0 0 0 0 0 0 0 0 0 0 0 0 0 0 0 0 0 0 19 52 52 68 81 48 58 58 16 19 23 29 0 0 0 0 0 0 0 6 6 10 13 10 0 0
0 0 0 0 0 0 0 0 0 0 0 0 0 0 0 0 0 0 0 0 0 3 10 26 74 81 90 97 94 87 87 90 55 32 10 3 3 0 3 3 0 6 13 13 10 13 6 0 0
0 0 0 0 0 0 0 0 0 0 0 0 0 0 0 0 0 0 3 3 3 16 26 39 65 84 100 100 100 100 94 81 71 52 29 13 6 6 3 3 10 29 65 29 13 19 3 0 0
0 0 0 0 0 0 0 0 0 0 0 0 0 0 0 0 0 0 3 3 13 26 39 42 71 87 87 94 100 100 100 90 77 65 52 45 13 16 19 6 13 23 45 26 19 16 0 0 0
0 0 0 0 0 0 0 0 0 0 0 0 0 0 0 0 0 3 10 13 16 48 45 52 65 77 90 94 100 100 97 81 74 61 61 65 52 35 26 16 16 16 26 19 3 16 6 0 0
0 0 0 0 0 0 0 0 0 0 0 0 0 0 0 0 0 0 3 13 13 26 42 55 68 87 90 94 97 100 97 84 81 74 61 58 61 58 39 42 32 29 19 10 6 0 0 3 0
0 0 0 0 0 0 0 0 0 0 0 0 0 0 0 0 0 0 3 10 19 42 52 65 77 87 87 90 97 100 97 100 100 97 87 87 87 81 61 58 48 35 23 19 6 6 0 0 0
0 0 0 0 0 0 0 0 0 0 0 0 0 0 0 0 0 0 3 32 48 58 58 65 90 94 87 81 81 81 87 90 90 94 97 94 90 84 65 61 58 42 35 19 16 6 3 0 0
0 0 0 0 0 0 0 0 0 0 0 0 0 0 0 3 6 3 6 52 65 81 77 77 94 90 84 81 68 48 77 84 84 87 90 94 94 90 77 65 65 45 39 29 23 16 3 0 0
0 0 0 0 0 0 0 0 0 0 0 0 0 3 19 16 13 3 10 61 77 87 87 81 97 97 94 81 48 32 48 68 77 77 71 90 90 90 84 71 68 65 48 32 23 13 3 0 0
0 0 0 0 0 0 0 0 0 0 0 0 0 3 13 10 3 3 0 19 52 81 90 81 90 100 90 71 58 61 55 68 65 74 74 68 77 74 77 81 74 68 55 42 32 10 3 0 0
0 0 0 0 0 0 0 0 0 0 0 0 0 0 0 0 3 0 0 0 16 61 87 90 94 94 94 74 61 58 68 81 77 68 71 74 71 74 71 74 71 58 55 45 23 13 3 0 0
0 0 0 0 0 0 0 0 0 0 0 0 0 0 0 0 0 0 0 0 3 29 74 87 94 94 97 90 77 74 84 90 84 84 74 77 68 71 68 65 58 45 58 39 19 6 3 0 0

GEFSSGP_con_cape1000_036.txt.gz
Probability
100 100 94 97 10 0 0 0 0 0 0 0 0 0 0 0 0 0 0 29 23 42 100 100 100 97 100 100 100 100 100 100 100 97 97 97 81 65 39 35 45 45 58 71 81 90 100 97 97
94 97 94 71 0 0 0 0 0 0 0 0 0 0 0 0 0 0 13 52 29 61 100 100 100 97 100 100 100 100 100 100 97 97 97 90 74 48 42 39 39 39 52 68 74 81 90 94 94
97 97 94 10 0 0 0 0 0 0 0 0 0 0 0 0 0 0 16 35 26 61 94 100 100 100 100 100 100 100 100 100 97 97 97 97 81 52 39 32 35 48 48 55 74 77 71 81 84
97 90 19 0 0 0 0 0 0 0 0 0 0 0 0 0 0 0 35 26 13 42 87 100 100 100 100 100 100 100 100 97 97 97 97 97 90 61 48 32 35 35 35 35 52 65 52 42 61
90 32 0 0 0 0 0 0 0 0 0 0 0 0 0 0 0 19 26 26 26 39 84 97 100 100 100 100 100 100 100 100 97 97 97 97 87 58 39 23 29 23 19 13 32 35 26 13 16
13 0 0 0 0 0 0 0 0 0 0 0 0 0 0 0 3 16 29 29 26 61 84 97 100 100 100 100 100 100 100 100 97 94 94 94 87 65 42 16 16 10 13 10 23 13 13 10 10
35 3 0 0 0 0 0 0 0 0 0 0 0 0 0 0 0 6 16 26 39 32 71 94 97 100 100 100 100 100 100 100 100 100 94 97 84 68 39 16 13 3 3 6 6 10 6 3 3
26 0 0 0 0 0 0 0 0 0 0 0 0 0 0 0 0 0 16 26 23 16 48 81 81 77 81 94 100 100 100 100 100 100 94 97 81 65 29 6 6 0 0 0 0 0 0 0 3
0 0 0 0 0 0 0 0 0 0 0 0 0 0 0 0 0 0 6 16 13 10 10 23 26 23 26 32 97 100 100 100 100 97 94 84 6 3 10 0 6 0 0 0 0 0 0 0 0
0 0 0 0 0 0 0 0 0 0 0 0 0 0 0 0 0 3 3 3 10 10 0 0 3 3 3 23 45 26 61 42 23 16 32 0 0 0 0 0 6 0 0 10 13 6 6 3 0
0 0 0 0 0 0 0 0 0 0 0 0 0 0 0 0 0 0 0 3 6 6 3 0 0 0 0 0 3 0 0 0 0 0 0 0 0 0 0 0 3 0 0 0 0 3 0 0 0
0 0 0 3 0 0 0 0 0 0 0 0 0 0 0 0 0 0 0 0 0 0 3 0 0 0 0 0 0 0 0 0 0 0 0 0 0 0 0 0 0 0 0 0 0 0 0 0 0
0 0 0 3 6 0 0 0 0 0 0 0 0 0 0 0 0 0 0 0 0 0 6 16 13 3 0 0 0 0 0 0 0 0 0 0 0 0 0 0 0 0 0 0 0 0 0 0 0
0 0 0 0 0 0 0 0 0 0 0 0 0 0 0 0 0 0 0 0 0 0 0 10 13 3 3 0 0 0 0 0 0 0 0 0 0 0 0 0 0 0 0 0 0 0 0 0 0
0 0 0 0 0 0 0 0 0 0 0 0 0 0 0 0 0 0 0 0 0 0 0 10 13 10 3 3 0 0 0 0 0 0 0 0 0 0 0 0 0 0 0 0 0 0 0 0 0
0 0 0 0 0 0 0 0 0 0 0 0 0 0 0 0 0 0 0 0 0 0 0 3 35 10 6 6 3 3 0 0 0 0 0 0 0 0 0 0 0 0 0 0 0 0 0 0 0
0 0 0 0 0 0 0 0 0 0 0 0 0 0 0 0 0 0 0 0 0 0 0 3 16 6 0 0 0 0 0 0 0 0 0 0 0 0 0 0 0 0 0 0 0 0 0 0 0
0 0 0 0 0 0 0 0 0 0 0 0 0 0 0 0 0 0 0 0 0 0 0 3 6 6 0 0 0 0 0 0 0 0 0 0 0 0 0 0 0 0 0 0 0 0 0 0 0
0 0 0 0 0 0 0 0 0 0 0 0 0 0 0 0 0 0 0 0 0 0 0 0 0 0 0 0 0 0 0 0 0 0 0 0 0 0 0 0 0 0 0 0 0 0 0 0 0
0 0 0 0 0 0 0 0 0 0 0 0 0 0 0 0 0 0 0 0 0 0 0 0 3 3 3 3 3 0 0 0 0 0 0 0 0 0 0 0 0 0 0 0 0 0 0 0 0
0 0 0 0 0 0 0 0 0 0 0 0 0 0 0 0 0 0 0 3 6 6 13 13 13 10 3 6 6 6 3 0 0 0 0 0 0 0 0 0 0 0 0 0 0 0 0 0 0
0 0 0 0 0 0 0 0 0 0 0 0 0 0 0 0 0 0 3 3 16 23 26 42 32 23 19 6 13 13 13 6 3 0 0 0 0 0 0 0 0 0 0 0 0 0 0 0 0
0 0 0 0 0 0 0 0 0 0 0 0 0 0 0 0 0 0 3 10 16 23 42 55 65 48 35 26 16 13 10 6 3 0 0 0 0 0 0 0 0 0 0 0 0 0 0 0 0
0 0 0 0 0 0 0 0 0 0 0 0 0 0 0 0 0 0 0 6 16 39 55 74 74 61 55 39 29 13 13 6 0 0 0 0 0 0 0 0 0 0 0 0 0 0 0 0 0
0 0 0 0 0 0 0 0 0 0 0 0 0 0 0 0 0 0 0 10 19 45 58 61 61 61 65 58 55 39 16 10 3 0 0 0 0 0 0 0 0 0 0 0 0 0 0 0 0
0 0 0 0 0 0 0 0 0 0 0 0 0 0 0 0 0 0 3 3 23 39 39 55 65 61 58 52 52 42 23 13 10 0 0 0 0 0 0 0 0 0 0 0 0 0 0 0 0
0 0 0 0 0 0 0 0 0 0 0 0 0 0 0 0 0 0 6 3 10 32 39 48 52 48 45 39 29 29 32 32 13 10 3 0 0 0 0 0 0 0 0 0 0 0 0 0 0
0 0 0 0 0 0 0 0 0 0 0 0 0 0 0 0 0 0 0 3 3 16 32 42 42 39 23 16 10 13 23 19 19 13 10 3 0 0 0 0 0 0 0 0 0 0 0 0 0
0 0 0 0 0 0 0 0 0 0 0 0 0 0 0 0 0 0 0 0 0 3 10 23 26 29 16 13 6 10 13 6 6 3 3 3 3 3 3 0 0 0 0 0 0 0 0 0 0
0 0 0 0 0 0 0 0 0 0 0 0 0 0 0 0 0 0 0 0 0 0 0 13 16 19 13 13 10 6 10 0 3 3 0 0 0 3 3 3 0 0 0 0 0 0 0 0 0

GEFSSGP_con_cape1000_042.txt.gz
Probability
100 90 81 3 0 0 0 0 0 0 0 0 0 0 0 0 0 0 0 0 0 6 71 100 100 100 97 97 97 100 100 100 100 97 94 87 71 55 45 52 61 68 74 81 84 90 94 97 100
94 97 52 0 0 0 0 0 0 0 0 0 0 0 0 0 0 0 3 3 0 26 87 94 100 100 100 97 97 100 100 100 94 94 87 81 61 48 29 32 39 48 61 71 77 84 87 97 97
97 90 16 0 0 0 0 0 0 0 0 0 0 0 0 0 0 0 0 0 0 39 84 94 100 100 100 100 100 100 100 97 94 94 87 74 52 32 19 19 29 35 32 42 68 68 74 94 97
90 10 0 0 0 0 0 0 0 0 0 0 0 0 0 0 0 0 0 0 0 48 71 94 100 100 100 100 100 100 97 97 94 94 87 81 52 19 19 13 13 13 13 19 45 52 52 81 87
6 0 0 0 0 0 0 0 0 0 0 0 0 0 0 0 0 6 3 0 6 48 55 97 100 100 100 100 100 100 97 97 97 97 90 84 58 39 13 10 13 13 3 3 16 23 26 65 68
0 0 0 0 0 0 0 0 0 0 0 0 0 0 0 0 3 10 0 0 3 48 68 97 100 100 100 100 97 97 94 94 90 94 94 87 71 39 13 13 10 0 0 0 6 16 19 29 45
0 0 0 0 0 0 0 0 0 0 0 0 0 0 0 0 3 3 0 0 3 42 65 90 97 97 100 100 97 97 97 97 90 90 87 90 71 61 23 16 0 3 0 0 0 3 16 19 35
3 0 0 0 0 0 0 0 0 0 0 0 0 0 0 0 0 0 0 0 0 16 55 68 77 84 87 97 100 100 100 94 90 94 87 84 68 58 26 13 0 0 0 0 0 0 10 29 52
0 0 0 0 0 0 0 0 0 0 0 0 0 0 0 0 3 0 0 0 0 10 32 42 39 35 39 52 94 97 94 90 94 90 87 77 10 3 16 3 0 0 0 0 0 3 6 16 32
0 0 0 0 0 0 0 0 0 0 0 0 0 0 0 3 10 0 3 3 3 6 10 23 19 13 6 48 61 35 68 55 26 19 26 3 0 0 3 0 0 0 0 0 0 3 0 0 0
0 0 0 0 0 0 0 0 0 0 0 0 0 0 0 3 6 10 6 6 10 10 13 23 16 6 3 3 6 3 6 6 3 0 0 0 0 0 0 0 0 0 0 0 0 0 0 0 0
0 0 0 3 3 0 0 0 0 0 0 0 0 0 0 3 6 10 13 6 10 10 13 19 19 6 3 0 3 3 0 0 0 0 0 0 0 0 0 0 0 0 0 0 0 0 0 0 0
0 0 0 0 0 0 0 0 0 0 0 0 0 0 0 3 3 10 10 10 13 10 10 13 16 6 0 0 0 6 0 0 0 0 0 0 0 0 0 0 0 0 0 0 0 0 0 0 0
0 0 0 0 0 0 0 0 0 0 0 0 0 0 0 0 0 3 3 3 0 10 10 3 6 3 0 0 0 3 0 0 0 0 0 0 0 0 0 0 0 0 0 0 0 0 0 0 0
0 0 0 0 0 0 0 0 0 0 0 0 0 0 0 0 0 0 3 3 3 0 6 6 3 0 0 0 0 3 0 0 0 0 0 0 0 0 0 0 0 0 0 0 0 0 0 0 0
0 0 0 0 0 0 0 0 0 0 0 0 0 0 0 0 0 0 0 3 3 3 0 10 26 6 3 0 0 0 0 0 0 0 0 0 0 0 0 0 0 0 0 0 0 0 0 0 0
0 0 0 0 0 0 0 0 0 0 0 0 0 0 0 0 0 0 0 0 0 3 3 10 26 16 10 3 3 0 0 0 0 0 0 0 0 0 0 0 0 0 0 0 0 0 0 0 0
0 0 0 0 0 0 0 0 0 0 0 0 0 0 0 0 0 0 0 0 0 0 3 13 35 35 16 3 3 3 0 0 0 0 0 0 0 0 0 0 0 0 0 0 0 0 0 0 0
0 0 0 0 0 0 0 0 0 0 0 0 0 0 0 0 0 0 0 0 0 0 0 6 39 35 32 13 3 3 3 0 0 0 0 0 0 0 0 0 0 0 0 0 0 0 0 0 0
0 0 0 0 0 0 0 0 0 0 0 0 0 0 0 0 0 0 0 0 0 0 0 3 29 45 35 23 19 6 0 0 0 0 0 0 0 0 0 0 0 0 0 0 0 0 0 0 0
0 0 0 0 0 0 0 0 0 0 0 0 0 0 0 0 0 0 0 0 0 0 0 3 19 35 29 16 10 0 0 0 0 0 0 0 0 0 0 0 0 0 0 0 0 0 0 0 0
0 0 0 0 0 0 0 0 0 0 0 0 0 0 0 0 0 0 0 0 0 0 0 3 23 23 23 13 6 3 0 0 0 0 0 0 0 0 0 0 0 0 0 0 0 0 0 0 0
0 0 0 0 0 0 0 0 0 0 0 0 0 0 0 0 0 0 0 6 10 3 0 0 3 10 10 13 10 3 3 0 0 0 0 0 0 0 0 0 0 0 0 0 0 0 0 0 0
0 0 0 0 0 0 0 0 0 0 0 0 0 0 0 0 0 0 0 3 13 10 6 3 3 6 6 10 6 3 3 3 3 3 0 0 0 0 0 0 0 0 0 0 0 0 0 0 0
0 0 0 0 0 0 0 0 0 0 0 0 0 0 0 0 0 0 0 0 6 10 6 10 3 0 0 0 0 3 3 3 0 0 0 0 0 0 0 0 0 0 0 0 0 0 0 0 0
0 0 0 0 0 0 0 0 0 0 0 0 0 0 0 0 0 0 0 0 0 3 6 6 3 0 0 0 0 0 0 0 0 0 0 0 0 0 0 0 0 0 0 0 0 0 0 0 0
0 0 0 0 0 0 0 0 0 0 0 0 0 0 0 0 0 0 0 0 0 0 3 3 6 6 3 3 0 0 0 0 0 0 0 0 0 0 0 0 0 0 0 0 0 0 0 0 0
0 0 0 0 0 0 0 0 0 0 0 0 0 0 0 0 0 0 0 0 0 0 0 0 0 0 0 3 3 0 0 0 0 0 0 0 0 0 0 0 0 0 0 0 0 0 0 0 0
0 0 0 0 0 0 0 0 0 0 0 0 0 0 0 0 0 0 0 0 0 0 0 0 0 3 3 3 3 3 0 3 0 0 0 0 0 0 0 0 0 0 0 0 0 0 0 0 0
0 0 0 0 0 0 0 0 0 0 0 0 0 0 0 0 0 0 0 0 0 0 0 0 0 0 3 0 0 0 0 3 3 0 0 0 0 0 0 0 0 0 0 0 0 0 0 0 0

GEFSSGP_con_cape1000_048.txt.gz
Probability
100 100 100 94 6 0 0 0 0 0 0 0 0 0 0 0 0 0 32 0 0 45 94 100 100 100 100 100 100 100 100 97 97 97 97 87 81 61 65 68 68 74 77 81 84 97 97 100 100
100 100 100 61 0 0 0 0 0 0 0 0 0 0 0 0 0 0 3 0 6 39 90 100 100 100 100 100 100 100 100 97 97 97 87 77 48 42 42 42 65 65 65 68 77 81 87 97 97
100 100 77 10 0 0 0 0 0 0 0 0 0 0 0 0 0 0 0 0 13 29 77 100 100 100 100 100 100 100 97 97 94 90 87 65 42 35 16 23 29 35 35 55 68 71 81 97 94
100 100 35 0 0 0 0 0 0 0 0 0 0 0 0 0 0 0 0 0 10 32 48 100 100 100 100 100 100 100 97 94 94 90 87 71 39 19 19 23 26 19 26 42 52 65 77 87 90
97 55 0 0 0 0 0 0 0 0 0 0 0 0 0 3 3 6 10 6 13 26 39 90 100 100 100 100 100 100 100 94 94 90 84 68 35 13 13 10 13 6 6 16 23 35 48 71 87
94 10 0 0 0 0 0 0 0 0 0 0 0 0 0 3 10 10 13 10 3 16 32 81 100 100 100 100 100 100 97 90 94 94 81 84 48 19 16 13 6 3 3 6 13 23 29 45 84
71 6 0 0 0 0 0 0 0 0 0 0 0 0 0 3 13 10 10 6 3 3 13 48 94 97 100 100 100 100 97 97 94 94 87 87 65 35 13 10 0 0 0 3 6 16 35 39 77
74 6 0 0 0 0 0 0 0 0 0 0 0 0 0 0 16 16 10 10 0 0 3 32 71 81 87 90 100 100 94 97 97 97 90 81 61 32 16 6 3 0 0 0 6 19 32 52 71
52 6 0 0 0 0 0 0 0 0 0 0 0 0 0 3 19 23 23 13 3 3 3 16 42 65 65 81 97 97 97 94 97 90 87 77 48 10 10 3 0 0 0 0 6 19 19 45 71
42 0 0 0 0 0 0 0 0 0 0 0 0 0 0 10 16 19 13 6 6 3 0 10 32 42 45 61 97 100 97 97 87 71 68 65 23 10 3 3 0 0 0 0 3 6 6 6 10
13 3 3 0 0 0 0 0 0 0 0 0 0 0 0 6 26 23 13 6 6 6 6 0 16 32 32 84 87 100 94 97 74 26 45 45 19 3 3 3 0 0 0 0 0 0 0 0 0
10 0 0 0 0 0 0 0 0 0 0 0 0 0 0 10 23 39 23 13 10 6 6 10 6 26 45 61 81 87 90 90 71 35 23 32 19 6 0 0 0 0 0 0 0 0 0 0 0
0 0 3 0 0 0 0 0 0 0 0 0 0 0 0 10 16 23 16 13 13 10 29 26 35 26 32 35 77 77 84 68 58 61 23 19 13 3 0 0 0 0 0 0 0 0 0 0 0
0 0 0 0 0 0 0 0 0 0 0 0 0 0 0 0 3 3 10 10 13 16 23 45 58 45 32 39 81 77 81 84 48 52 23 13 10 3 0 0 0 0 0 0 0 0 0 0 0
0 0 0 0 0 0 0 0 0 0 0 0 0 0 0 0 0 0 6 6 10 13 13 32 55 45 42 35 32 42 81 77 61 48 16 13 10 3 0 0 0 0 0 0 0 0 0 0 0
0 0 0 0 0 0 0 0 0 0 0 0 0 0 0 0 0 0 0 3 10 13 23 29 74 65 58 61 81 81 74 52 68 45 26 13 3 3 0 0 0 0 0 0 0 0 0 0 0
0 0 0 0 0 0 0 0 0 0 0 0 0 0 0 0 0 0 0 0 0 26 48 61 87 94 90 87 97 94 74 71 61 48 29 16 3 3 0 16 6 0 0 0 0 0 0 3 0
0 0 0 0 0 0 0 0 0 0 0 0 0 0 0 0 0 0 0 0 0 6 23 71 90 94 100 100 97 100 90 71 71 52 45 26 16 13 10 29 10 10 3 3 0 0 3 6 6
0 0 0 0 0 0 0 0 0 0 0 0 0 0 0 0 0 0 0 6 3 6 3 42 87 97 100 100 97 97 94 94 87 77 45 45 45 35 39 52 23 19 13 6 3 3 3 13 3
0 0 0 0 0 0 0 0 0 0 0 0 0 0 0 0 3 0 0 6 16 13 10 29 74 94 100 97 90 84 74 81 77 74 65 58 58 58 29 65 61 55 55 32 6 13 23 19 0
0 0 0 0 0 0 0 0 0 0 0 0 0 0 0 0 3 3 3 10 13 29 26 26 45 81 94 81 71 58 48 39 42 48 74 77 65 65 84 61 68 61 48 45 39 35 26 39 10
0 0 0 0 0 0 0 0 0 0 0 0 0 0 0 0 0 0 6 16 13 32 39 35 45 65 74 74 55 48 32 29 26 32 35 61 74 71 74 65 45 45 52 52 52 23 32 42 42
0 0 0 0 0 0 0 0 0 0 0 0 0 0 0 0 0 0 3 19 19 29 48 58 58 65 71 65 58 42 23 19 16 19 29 35 58 58 68 71 68 45 42 55 55 39 26 35 42
0 0 0 0 0 0 0 0 0 0 0 0 0 0 0 0 0 3 3 16 26 23 45 52 48 52 55 52 35 23 26 10 13 13 26 32 52 61 61 65 65 61 58 58 68 68 52 45 39
0 0 0 0 0 0 0 0 0 0 0 0 0 0 0 0 0 0 3 6 10 16 23 26 32 39 39 29 16 19 10 6 6 10 19 29 42 58 61 55 61 58 65 58 61 58 58 45 39
0 0 0 0 0 0 0 0 0 0 0 0 0 0 0 0 0 0 0 0 0 3 16 26 26 19 19 10 3 6 6 10 13 16 23 35 52 55 58 52 52 42 48 39 65 65 58 32 26
0 0 0 0 0 0 0 0 0 0 0 0 0 0 0 0 0 0 0 0 0 0 3 10 19 19 13 10 13 16 19 29 23 19 23 45 39 42 39 42 39 39 55 61 61 55 42 26 29
0 0 0 0 0 0 0 0 0 0 0 0 0 0 0 0 0 0 0 0 0 3 3 6 3 10 26 23 19 19 26 35 39 35 39 26 26 32 42 42 35 39 52 55 45 35 35 39 35
0 0 0 0 0 0 0 0 0 0 0 0 0 0 0 0 0 0 0 0 0 0 0 0 3 3 3 10 16 13 23 39 35 42 32 35 35 42 39 29 32 29 32 26 35 35 32 29 23
0 0 0 0 0 0 0 0 0 0 0 0 0 0 0 0 0 0 0 0 0 0 0 0 0 6 10 6 16 16 16 26 32 29 26 32 29 29 19 19 19 29 29 29 16 32 23 29 26

GEFSSGP_con_cape1000_054.txt.gz
Probability
100 100 100 100 100 65 0 0 0 0 0 0 0 0 0 3 13 58 77 35 81 74 77 100 100 100 100 100 100 97 97 97 97 94 84 77 68 65 71 71 74 71 71 81 90 90 94 94 90
100 100 100 100 97 0 0 0 0 0 0 0 0 0 0 0 3 0 29 61 77 77 68 97 100 100 100 100 100 97 97 97 97 90 71 55 52 55 58 55 58 61 65 65 74 81 84 94 100
100 100 100 100 29 0 0 0 0 0 0 0 0 0 0 0 0 0 13 52 71 74 81 100 100 100 100 100 100 97 97 97 90 84 65 45 45 39 32 29 39 35 55 65 65 71 77 84 97
100 100 100 68 6 0 0 0 0 0 0 0 0 0 0 0 0 0 3 23 61 77 87 100 100 100 100 100 100 97 97 97 87 84 68 52 42 19 16 26 26 26 39 45 58 61 74 77 71
100 100 90 16 0 0 0 0 0 0 0 0 0 0 3 0 0 0 3 23 55 77 94 90 100 100 100 100 97 97 97 94 90 84 71 45 23 23 23 16 16 16 23 35 45 58 61 74 77
100 100 39 0 0 0 0 0 0 0 0 0 0 0 0 0 0 0 3 6 32 81 87 90 100 100 100 100 100 97 94 94 90 87 74 58 26 19 26 16 6 3 6 16 29 32 45 68 77
100 97 26 0 3 0 0 0 0 0 0 0 0 0 0 0 0 0 3 3 13 65 77 74 94 97 100 100 100 100 97 94 94 94 87 58 39 26 23 13 3 3 3 10 19 29 35 48 71
100 97 39 3 10 0 0 0 0 0 0 0 0 0 0 0 6 0 0 3 3 23 71 68 65 81 87 100 100 100 100 97 94 97 84 77 48 29 23 10 3 0 0 3 10 29 35 45 61
97 100 48 3 16 6 0 0 0 0 0 0 0 0 0 0 0 0 0 0 3 6 52 52 55 55 61 71 94 100 100 100 97 94 84 77 45 16 19 10 10 0 0 3 13 23 35 45 55
84 94 26 16 6 0 0 0 0 0 0 0 0 3 0 0 0 0 0 0 0 0 6 39 52 61 71 71 84 90 87 97 68 45 58 55 39 13 3 10 13 0 6 3 10 16 29 32 3
10 26 32 6 0 0 0 0 0 0 0 0 0 3 3 3 3 3 0 0 0 0 3 16 35 45 61 90 94 94 90 97 58 52 39 32 26 10 0 0 0 0 0 0 3 6 0 6 3
3 3 0 0 0 0 0 0 0 0 0 0 0 0 3 3 6 10 3 0 0 0 0 0 16 26 45 68 87 87 71 71 65 61 39 29 26 3 3 3 0 0 0 0 0 0 0 3 0
0 0 0 0 0 0 0 0 0 0 0 0 0 0 0 0 3 0 3 0 0 0 0 0 6 13 23 48 84 84 81 55 61 71 48 26 29 6 0 3 0 0 0 0 0 0 0 0 0
0 0 0 0 0 0 0 0 0 0 0 0 0 0 0 0 0 0 0 0 0 0 0 0 0 6 10 29 65 55 84 90 61 61 45 10 6 3 3 0 0 0 0 0 0 0 0 0 0
0 0 0 0 0 0 0 0 0 0 0 0 0 0 0 0 0 0 0 0 0 0 0 3 0 0 3 10 35 45 74 65 58 58 29 3 6 6 0 0 0 0 0 0 0 0 0 0 0
0 0 0 0 0 0 0 0 0 0 0 0 0 0 0 0 0 0 0 0 0 0 0 3 10 10 13 23 48 48 45 55 65 55 29 10 6 0 0 0 0 0 0 0 0 0 0 0 0
0 0 0 0 0 0 0 0 0 0 0 0 0 0 0 0 3 3 3 3 6 0 0 3 23 23 23 32 71 68 42 71 65 55 29 13 6 3 3 0 0 0 0 0 0 0 0 0 0
0 0 0 0 0 0 0 0 0 0 0 0 0 0 0 0 3 3 3 3 3 6 16 13 10 32 45 84 71 84 71 71 58 52 35 16 6 3 10 6 3 0 0 0 0 0 0 0 0
0 0 0 0 0 0 0 0 0 0 0 0 0 0 0 0 6 6 6 13 10 16 16 19 42 45 74 87 97 94 87 77 71 61 32 26 19 10 10 6 0 3 0 0 0 0 0 0 0
0 0 0 0 0 0 0 0 0 0 0 0 0 0 0 0 0 3 10 10 16 29 35 45 45 58 71 94 94 81 84 71 71 61 29 19 23 16 16 10 6 10 10 10 6 10 3 0 0
0 0 0 0 0 0 0 0 0 0 0 0 0 0 0 0 3 6 13 16 42 39 42 55 65 61 71 90 84 81 77 68 61 52 26 26 13 6 13 10 10 0 0 0 0 3 0 0 0
0 0 0 0 0 0 0 0 0 0 0 0 0 0 0 3 3 6 10 16 19 35 45 48 68 65 71 74 77 77 68 58 45 39 32 29 26 23 13 3 6 3 3 3 0 0 0 0 0
0 0 0 0 0 0 0 0 0 0 0 0 0 0 0 0 3 3 3 10 10 23 35 39 58 58 68 74 74 74 61 48 42 35 29 23 13 10 13 6 10 3 3 0 0 0 0 0 0
0 0 0 0 0 0 0 0 0 0 0 0 0 0 0 0 0 3 0 6 6 19 32 42 55 45 45 65 61 58 48 39 35 32 23 10 6 3 3 3 10 6 6 3 6 6 3 3 0
0 0 0 0 0 0 0 0 0 0 0 0 0 0 0 0 0 0 0 3 6 6 19 35 39 35 35 35 29 39 39 32 26 13 6 0 0 0 3 6 10 10 10 10 6 3 3 3 3
0 0 0 0 0 0 0 0 0 0 0 0 0 0 0 0 0 0 0 6 6 3 6 13 19 16 19 16 19 16 16 13 10 6 0 0 3 3 10 10 13 13 13 6 6 6 6 3 3
0 0 0 0 0 0 0 0 0 0 0 0 0 0 0 0 0 0 3 3 3 3 3 6 6 10 10 6 6 6 6 3 0 0 0 3 3 3 3 6 6 10 10 13 13 16 16 10 10
0 0 0 0 0 0 0 0 0 0 0 0 0 0 0 0 0 0 0 0 0 3 6 10 3 6 3 3 3 6 3 3 3 3 3 3 3 6 3 6 6 10 13 16 19 19 10 10 3
0 0 0 0 0 0 0 0 0 0 0 0 0 0 0 0 0 0 0 0 0 0 0 0 0 6 3 3 3 3 3 6 3 6 6 6 3 10 6 10 10 6 13 13 13 13 13 6 6
0 0 0 0 0 0 0 0 0 0 0 0 0 0 0 0 0 0 0 0 0 0 0 0 0 0 3 6 3 0 0 6 0 0 3 3 3 6 6 10 6 10 3 3 10 6 6 6 3

GEFSSGP_con_cape1000_060.txt.gz
Probability
100 94 97 87 16 0 0 0 0 0 0 0 0 0 0 0 0 0 0 48 13 55 100 100 100 100 100 100 100 97 97 97 97 90 90 90 90 90 81 81 81 87 94 97 94 97 100 100 97
94 90 97 45 0 0 0 0 0 0 0 0 0 0 0 0 0 16 32 45 23 68 97 97 100 100 100 100 97 97 97 97 87 87 90 81 74 77 74 71 65 68 68 81 84 90 94 100 100
94 100 94 32 0 0 0 0 0 0 0 0 0 0 0 0 3 16 42 45 29 68 97 100 100 100 100 97 97 97 97 94 87 77 74 71 74 71 65 71 65 61 58 65 71 84 87 100 100
97 94 35 0 0 0 0 0 0 0 0 0 0 0 0 3 6 35 48 26 32 55 94 100 100 100 100 97 97 97 97 90 87 77 68 58 52 48 48 55 42 45 45 55 65 74 87 90 97
77 39 0 0 0 0 0 0 0 0 0 0 0 0 0 0 35 52 48 29 29 58 94 100 100 100 100 97 97 97 97 90 84 77 71 68 48 42 45 32 32 42 42 45 58 74 81 81 87
39 10 0 0 0 0 0 0 0 0 0 0 0 0 0 3 35 42 42 39 35 68 90 100 100 100 100 97 97 97 97 90 87 87 68 65 42 39 35 23 23 23 26 32 45 48 61 71 81
39 13 0 0 0 0 0 0 0 0 0 0 0 0 0 0 16 26 52 48 55 68 84 97 100 100 100 97 97 97 97 94 97 90 74 58 55 39 29 23 13 10 19 23 26 32 48 61 74
13 6 0 0 0 0 0 0 0 0 0 0 0 0 0 0 3 19 45 58 65 55 68 90 94 100 97 97 97 97 97 97 97 97 90 71 58 45 35 26 13 6 6 13 19 29 39 45 65
0 0 0 0 0 0 0 0 0 0 0 0 0 0 0 0 0 10 39 61 58 52 42 61 74 74 81 87 97 97 97 97 97 97 97 90 29 10 23 13 16 6 3 6 23 23 19 39 42
0 0 0 0 0 0 0 0 0 0 0 0 0 0 0 0 3 3 23 52 61 52 35 35 48 55 61 71 84 87 94 90 84 68 74 52 0 0 0 6 26 19 13 10 10 19 19 16 3
0 0 0 0 0 0 0 0 0 0 0 0 0 0 0 0 3 3 3 32 45 52 48 35 26 32 39 32 48 58 48 45 29 19 16 10 0 0 0 0 6 10 10 0 3 3 0 0 0
0 0 0 0 0 0 0 0 0 0 0 0 0 0 0 0 0 0 3 6 23 45 48 48 35 26 19 19 35 32 29 23 19 16 6 6 0 0 0 0 0 0 0 0 0 0 0 0 0
0 0 0 3 0 0 0 0 0 0 0 0 0 0 0 0 0 0 0 3 6 23 29 35 48 35 23 26 32 23 19 19 13 10 0 3 0 0 0 0 0 0 0 0 0 0 0 0 0
0 0 0 0 0 0 0 0 0 0 0 0 0 0 0 0 0 0 0 0 0 3 10 19 26 29 26 32 35 19 13 10 6 6 0 3 3 0 0 0 0 0 0 0 0 0 0 0 0
0 0 0 0 0 0 0 0 0 0 0 0 0 0 0 0 0 0 0 0 0 0 0 3 6 13 16 29 26 35 6 6 6 6 0 3 3 0 0 0 0 0 0 0 0 0 0 0 0
0 0 0 0 0 0 0 0 0 0 0 0 0 0 0 0 0 0 3 3 0 0 0 0 6 6 13 6 29 29 13 10 6 3 3 0 3 0 0 0 0 0 0 0 0 0 0 0 0
0 0 0 0 0 0 0 0 0 0 0 0 0 0 0 0 0 0 0 0 3 0 3 3 3 3 0 3 10 19 19 13 6 6 6 0 0 0 0 0 0 0 0 0 0 0 0 0 0
0 0 0 0 0 0 0 0 0 0 0 0 0 0 0 0 0 0 0 0 0 0 3 3 10 6 3 0 0 6 6 10 6 6 3 0 0 0 0 0 0 0 0 0 0 0 0 0 0
0 0 0 0 0 0 0 0 0 0 0 0 0 0 0 0 0 0 0 0 0 0 0 0 0 3 6 0 3 3 6 6 10 10 6 0 0 0 0 0 0 0 0 0 0 0 0 0 0
0 0 0 0 0 0 0 0 0 0 0 0 0 0 0 0 0 0 0 0 0 3 0 0 0 0 0 3 3 6 10 6 6 3 3 3 3 3 0 0 0 0 0 0 0 0 0 0 0
0 0 0 0 0 0 0 0 0 0 0 0 0 0 0 0 0 0 0 0 0 3 3 0 0 3 3 0 0 6 6 3 3 3 3 6 6 3 3 0 0 0 0 0 0 0 0 0 0
0 0 0 0 0 0 0 0 0 0 0 0 0 0 0 0 0 0 0 0 0 0 0 6 3 6 6 0 10 13 10 6 10 6 6 6 6 3 3 0 0 0 0 0 0 0 0 0 0
0 0 0 0 0 0 0 0 0 0 0 0 0 0 0 0 0 0 0 0 0 0 0 0 3 3 3 3 3 6 6 10 10 6 6 6 6 6 3 0 0 0 0 0 0 0 0 0 0
0 0 0 0 0 0 0 0 0 0 0 0 0 0 0 0 0 0 0 0 0 0 0 0 0 0 3 0 3 6 6 10 6 10 6 3 6 6 3 3 0 0 0 0 0 0 0 0 0
0 0 0 0 0 0 0 0 0 0 0 0 0 0 0 0 0 0 0 0 0 0 0 0 0 3 0 3 3 3 10 10 10 10 6 3 6 3 0 0 0 0 0 0 0 0 0 0 0
0 0 0 0 0 0 0 0 0 0 0 0 0 0 0 0 0 0 0 0 0 0 0 0 3 3 0 3 0 0 6 6 6 3 3 0 3 3 0 0 0 0 0 0 0 0 0 0 0
0 0 0 0 0 0 0 0 0 0 0 0 0 0 0 0 0 0 0 0 0 0 0 0 0 0 0 3 0 0 0 0 0 0 0 0 0 0 0 0 0 0 0 0 3 0 0 0 0
0 0 0 0 0 0 0 0 0 0 0 0 0 0 0 0 0 0 0 0 0 0 0 0 0 0 0 0 0 0 0 0 0 0 0 0 0 0 0 0 0 0 0 0 0 3 3 3 0
0 0 0 0 0 0 0 0 0 0 0 0 0 0 0 0 0 0 0 0 0 0 0 0 0 0 0 0 0 0 0 0 0 0 0 0 0 0 0 0 0 0 0 0 0 0 0 3 0
0 0 0 0 0 0 0 0 0 0 0 0 0 0 0 0 0 0 0 0 0 0 0 0 0 0 0 0 0 0 0 0 0 0 0 0 0 0 0 0 0 0 0 0 0 0 0 0 0

GEFSSGP_con_cape1000_066.txt.gz
Probability
100 94 87 19 0 0 0 0 0 0 0 0 0 0 0 0 0 0 0 0 0 35 94 100 100 100 100 100 100 97 97 94 94 94 94 94 90 84 87 84 90 94 94 97 97 100 100 100 100
97 94 48 3 0 0 0 0 0 0 0 0 0 0 0 0 13 6 3 6 16 65 100 100 100 100 100 100 100 97 94 94 97 94 90 84 81 74 74 71 77 81 87 87 90 97 100 100 100
94 90 26 0 0 0 0 0 0 0 0 0 0 0 0 6 35 13 10 6 35 71 97 100 100 100 100 100 97 97 90 87 90 90 84 74 74 71 65 61 58 65 71 74 87 90 97 100 100
87 13 0 0 0 0 0 0 0 0 0 0 0 0 0 3 32 29 19 10 39 81 90 100 100 100 100 100 97 94 94 87 84 74 71 65 61 48 45 42 42 52 61 61 68 81 87 94 100
6 0 0 0 0 0 0 0 0 0 0 0 0 0 0 26 35 39 32 19 35 77 94 100 100 100 100 100 97 97 94 90 77 68 65 61 48 29 32 39 32 32 45 52 61 71 68 77 84
0 0 0 0 0 0 0 0 0 0 0 0 0 0 0 39 42 42 29 19 39 77 94 100 100 100 100 100 97 97 97 84 71 74 71 65 52 35 26 29 26 32 35 35 55 55 71 71 84
0 0 0 0 0 0 0 0 0 0 0 0 0 0 3 42 45 35 23 13 39 74 87 97 100 100 100 97 97 97 97 94 81 81 77 71 65 48 26 19 13 19 19 23 35 45 45 55 77
0 0 0 0 0 0 0 0 0 0 0 0 0 0 0 29 39 26 29 23 29 48 77 90 94 97 97 97 97 97 97 97 97 94 81 74 71 58 32 32 16 13 16 19 13 29 35 45 65
0 0 0 0 0 0 0 0 0 0 0 0 0 0 0 23 29 26 32 42 32 42 58 71 77 84 87 94 97 97 97 97 97 97 94 87 42 19 19 26 26 10 13 10 16 16 19 23 23
0 0 0 0 0 0 0 0 0 0 0 0 0 0 10 13 13 19 32 26 45 48 52 61 65 71 74 87 90 94 97 90 90 81 71 55 10 3 6 13 26 23 10 10 23 13 10 0 0
0 0 0 0 0 0 0 0 0 0 0 0 0 0 0 3 6 13 10 16 19 23 39 58 48 58 61 61 48 55 68 61 55 45 35 26 0 0 3 0 6 6 10 6 6 3 0 0 0
0 0 0 0 0 0 0 0 0 0 0 0 0 0 0 0 0 0 0 3 6 10 13 39 48 45 42 55 35 32 35 32 35 32 23 10 3 0 0 0 0 0 0 0 0 0 0 0 0
0 0 0 0 0 0 0 0 0 0 0 0 0 0 0 0 0 0 0 0 0 3 3 10 32 16 16 19 16 26 45 39 26 26 13 6 3 0 0 0 0 0 0 0 0 0 0 0 0
0 0 0 0 0 0 0 0 0 0 0 0 0 0 0 0 0 0 0 0 0 0 0 3 13 26 13 10 10 6 23 29 13 16 16 13 10 3 0 0 0 0 0 0 0 0 0 0 0
0 0 0 0 0 0 0 0 0 0 0 0 0 0 0 0 0 0 0 0 0 0 0 0 0 16 19 10 6 13 19 16 16 13 10 13 13 0 0 0 0 0 0 0 0 0 0 0 0
0 0 0 0 0 0 0 0 0 0 0 0 0 0 0 0 0 0 0 0 0 0 0 0 0 3 13 10 19 19 26 16 13 13 3 3 6 0 0 0 0 0 0 0 0 0 0 0 0
0 0 0 0 0 0 0 0 0 0 0 0 0 0 0 0 0 0 0 0 0 0 0 0 0 0 0 10 6 19 26 26 6 6 6 3 3 3 0 0 0 0 0 0 0 0 0 0 0
0 0 0 0 0 0 0 0 0 0 0 0 0 0 0 0 0 0 0 0 0 0 0 0 0 0 0 0 6 10 26 26 19 10 10 6 0 3 3 0 0 0 0 0 0 0 0 0 0
0 0 0 0 0 0 0 0 0 0 0 0 0 0 0 0 0 0 0 0 0 0 0 0 0 0 0 0 0 6 10 13 19 10 10 13 10 0 3 0 0 0 0 0 0 0 0 0 0
0 0 0 0 0 0 0 0 0 0 0 0 0 0 0 0 0 0 0 0 0 0 0 0 0 0 0 0 0 0 3 10 10 10 6 6 3 6 6 3 0 0 0 0 0 0 0 0 0
0 0 0 0 0 0 0 0 0 0 0 0 0 0 0 0 0 0 0 0 0 0 0 0 0 0 0 0 0 3 3 3 3 6 6 6 6 3 10 3 0 0 0 0 0 0 0 0 0
0 0 0 0 0 0 0 0 0 0 0 0 0 0 0 0 0 0 0 0 0 0 0 0 0 0 0 0 0 3 3 3 3 6 10 6 3 3 3 0 0 0 0 0 0 0 0 0 0
0 0 0 0 0 0 0 0 0 0 0 0 0 0 0 0 0 0 0 0 0 0 0 0 0 0 0 0 0 3 3 0 0 3 6 6 3 3 3 0 0 0 0 0 0 0 0 0 0
0 0 0 0 0 0 0 0 0 0 0 0 0 0 0 0 0 0 0 0 0 0 0 0 0 0 0 0 0 3 3 3 3 0 3 6 6 3 3 0 0 0 0 0 0 0 0 0 0
0 0 0 0 0 0 0 0 0 0 0 0 0 0 0 0 0 0 0 0 0 0 0 0 0 0 0 0 0 0 3 6 3 0 3 3 6 3 0 0 0 0 0 0 0 0 0 0 0
0 0 0 0 0 0 0 0 0 0 0 0 0 0 0 0 0 0 0 0 0 0 0 0 0 0 3 0 0 0 3 3 6 6 6 10 6 0 0 0 0 0 0 0 0 0 0 0 0
0 0 0 0 0 0 0 0 0 0 0 0 0 0 0 0 0 0 0 0 0 0 0 0 0 0 0 3 3 0 0 3 6 6 6 3 0 0 0 3 0 0 0 0 0 0 0 0 0
0 0 0 0 0 0 0 0 0 0 0 0 0 0 0 0 0 0 0 0 0 0 0 0 0 0 0 0 0 0 3 3 0 0 0 0 0 0 0 0 0 0 0 0 0 0 0 0 0
0 0 0 0 0 0 0 0 0 0 0 0 0 0 0 0 0 0 0 0 0 0 0 0 0 0 0 0 0 0 0 0 0 0 0 0 0 0 0 0 0 0 0 0 0 0 0 0 0
0 0 0 0 0 0 0 0 0 0 0 0 0 0 0 0 0 0 0 0 0 0 0 0 0 0 0 0 0 0 0 0 0 0 0 0 0 0 0 0 0 0 0 0 0 0 0 0 0

GEFSSGP_con_cape1000_072.txt.gz
Probability
100 100 100 100 29 0 0 0 0 0 0 0 0 0 0 6 3 19 42 10 3 19 77 97 100 100 100 100 100 100 97 94 94 94 94 90 90 84 90 94 94 94 94 97 94 97 97 97 100
100 100 87 52 0 0 0 0 0 0 0 0 0 0 0 10 23 13 29 16 3 13 81 90 100 100 100 100 100 100 94 94 87 90 90 87 84 81 81 84 90 87 87 90 94 94 100 94 94
100 94 74 6 0 0 0 0 0 0 0 0 0 0 0 6 13 6 35 16 0 16 74 100 100 100 100 100 100 94 94 97 90 84 87 87 71 65 65 65 68 71 77 84 90 87 90 97 97
94 84 29 0 0 0 0 0 0 0 0 0 0 0 0 26 19 16 29 19 3 32 71 100 100 100 100 100 97 97 94 90 87 81 87 71 61 55 52 52 52 61 68 65 71 77 81 97 90
77 48 0 0 0 0 0 0 0 0 0 0 0 0 10 48 45 35 29 16 19 39 65 100 100 100 100 100 97 97 94 84 84 77 68 65 52 48 42 32 32 39 45 48 55 68 74 87 84
77 10 0 0 0 0 0 0 0 0 0 0 0 0 23 58 61 52 52 42 23 35 42 74 100 100 100 97 97 97 94 84 84 74 71 61 45 42 32 26 29 26 35 42 45 52 65 68 68
68 10 0 0 0 0 0 0 0 0 0 0 0 0 13 65 68 58 61 45 42 52 52 71 84 97 97 94 97 97 97 97 84 77 74 74 71 39 29 26 29 13 19 29 42 45 42 52 65
58 3 0 0 0 0 0 0 0 0 0 0 3 0 3 58 68 61 55 45 48 61 58 61 68 81 84 94 94 97 97 97 97 84 81 74 65 61 45 23 23 16 13 19 26 32 39 39 55
26 0 0 0 0 0 0 0 0 0 0 3 10 10 39 45 61 52 45 52 55 45 48 65 68 74 84 87 87 94 94 97 97 97 87 87 58 45 55 29 29 19 13 16 16 19 26 32 35
19 0 6 10 0 3 0 0 0 0 0 3 16 29 39 39 42 42 35 26 35 32 32 42 58 61 71 74 84 94 94 94 94 94 94 87 65 39 19 16 26 23 16 19 19 16 16 6 19
6 13 6 6 3 0 0 3 3 3 0 3 6 13 13 19 19 23 16 13 13 6 13 23 29 45 61 84 77 87 90 94 90 87 84 87 77 55 23 23 29 35 26 6 29 10 0 0 6
3 0 0 0 0 0 0 0 0 6 3 3 6 10 10 13 13 10 6 10 6 6 10 13 16 32 55 58 71 84 87 81 84 77 71 81 90 74 35 29 19 13 16 16 3 6 3 0 0
0 0 0 0 3 0 0 0 0 3 6 6 3 3 0 0 0 0 0 3 6 6 3 3 13 26 32 45 71 71 81 77 81 87 77 65 81 71 52 45 42 23 10 13 10 0 0 0 0
0 0 0 0 3 3 0 0 0 3 3 0 0 0 0 0 0 0 0 0 0 0 0 3 6 13 13 39 61 68 68 77 74 77 77 58 74 77 68 48 45 32 6 0 6 3 0 0 0
3 0 0 0 0 0 0 0 0 0 0 0 0 0 0 0 0 0 0 0 0 0 0 0 0 6 13 23 48 58 71 77 68 74 74 68 77 61 71 55 52 42 19 13 0 0 0 0 0
0 0 0 0 0 0 0 0 0 0 0 3 3 3 3 3 3 3 0 0 0 0 3 0 0 6 6 10 26 39 58 71 81 81 77 65 52 58 61 65 52 32 32 23 23 6 6 0 0
0 0 0 0 0 0 0 0 0 0 0 3 3 3 3 3 3 3 0 0 0 0 0 3 3 3 6 10 23 32 48 61 58 68 74 61 48 55 65 71 61 35 35 35 3 10 10 0 0
0 0 0 0 0 0 0 0 0 0 0 0 0 0 0 3 0 0 0 0 0 0 0 0 0 3 3 10 13 32 39 55 65 58 65 61 48 48 48 61 52 42 52 35 29 6 13 10 16
0 0 0 0 0 0 0 0 0 0 0 0 0 0 0 0 0 0 0 0 0 0 0 0 0 0 0 3 6 23 29 45 58 58 52 52 48 52 55 48 52 45 45 35 23 19 6 10 3
0 0 0 0 0 0 0 0 0 0 0 0 0 0 0 0 0 0 0 0 0 0 0 0 0 0 0 0 6 10 19 32 52 68 52 55 55 55 48 52 55 48 48 26 26 23 39 26 3
0 0 0 0 0 0 0 0 0 0 0 0 0 0 0 0 0 0 0 0 0 0 0 0 0 0 0 0 3 16 29 32 39 48 48 42 48 55 52 48 42 39 32 19 23 13 16 29 10
0 0 0 0 0 0 0 0 0 0 0 0 0 0 0 0 0 0 0 0 0 0 0 0 0 0 0 0 3 10 23 32 26 32 42 45 45 45 39 39 42 32 29 26 16 13 16 19 23
0 0 0 0 0 0 0 0 0 0 0 0 0 0 0 0 0 0 0 0 0 0 0 0 0 0 0 0 0 0 13 19 16 29 39 42 42 45 42 45 32 26 26 29 19 16 19 16 23
0 0 0 0 0 0 0 0 0 0 0 0 0 0 0 0 0 0 0 0 0 0 0 0 0 0 0 0 0 0 3 10 10 13 23 29 35 39 32 32 32 29 23 16 16 19 16 13 13
0 0 0 0 0 0 0 0 0 0 0 0 0 0 0 0 0 0 0 0 0 0 0 0 0 0 0 0 0 0 3 3 13 13 19 23 29 32 32 23 19 19 26 26 23 19 10 6 6
0 0 0 0 0 0 0 0 0 0 0 0 0 0 0 0 0 0 0 0 0 0 0 0 0 0 0 0 0 0 3 3 6 10 13 13 23 26 32 32 26 16 19 13 16 19 16 3 6
0 0 0 0 0 0 0 0 0 0 0 0 0 0 0 0 0 0 0 0 0 0 0 0 0 0 0 0 0 0 0 3 3 3 10 10 6 13 23 19 23 23 19 16 13 26 13 6 3
0 0 0 0 0 0 0 0 0 0 0 0 0 0 0 0 0 0 0 0 0 0 0 0 0 0 0 0 0 0 0 3 10 6 10 13 16 19 19 16 16 13 13 19 16 16 13 3 3
0 0 0 0 0 0 0 0 0 0 0 0 0 0 0 0 0 0 0 0 0 0 0 0 0 0 0 0 0 3 3 3 3 6 6 10 13 19 19 10 13 13 13 13 6 0 0 0 6
0 0 0 0 0 0 0 0 0 0 0 0 0 0 0 0 0 0 0 0 0 0 0 0 0 0 0 0 0 0 0 3 3 3 10 6 10 6 3 6 6 6 3 3 0 0 0 0 3